Weather in Burewala

Pakistan     30°09′24″N   72°40′39″E
temp.,
°C
wind,
m/s
gust,
m/s
humid.,
%
clouds,
%
prec.,
mm/h
press.,
hPa
HPBL,
m
27 november, sat
sat2723:00+18se22240 0.0 101413
02:00+17se22270 0.0 101411
05:00+16ese22290 0.0 101411
08:00+18ese23250 0.0 101685
11:00+26ese32150 0.0 1016734
14:00+29e21120 0.0 10132392
17:00+24e22160 0.0 101311
20:00+20e33220 0.0 101518
28 november, sun
sun2823:00+18e22250 0.0 101611
02:00+17e33270 0.0 101623
05:00+15ene33300 0.0 101728
08:00+17ene24260 0.0 101991
11:00+26ene23150 0.0 1019668
14:00+28nne33130 0.0 10162159
17:00+23nne33170 0.0 101615
20:00+19ne33220 0.0 101721
29 november, mon
mon2923:00+18e22240 0.0 101712
02:00+16ene11270 0.0 101711
05:00+15ne11280 0.0 101811
08:00+18ene11250 0.0 102047
11:00+26se11150 0.0 1020649
14:00+28nnw22130 0.0 10171676
17:00+23nnw33170 0.0 101613
20:00+19n22220 0.0 101811
30 november, tue
tue3023:00+18n12250 0.0 101811
02:00+17nw222711 0.0 101711
05:00+15nw1129100 0.0 101711
08:00+17nnw22251 0.0 101760
11:00+25wnw2215100 0.0 1017628
14:00+28wnw2312100 0.0 10141535
17:00+23sw111790 0.0 101411
20:00+19ssw2222100 0.0 101511
1 december, wed
wed123:00+18ssw1125100 0.0 101611
02:00+17sw0126100 0.0 101611
05:00+16nne1128100 0.0 101611
08:00+18ne1124100 0.0 101818
11:00+25e1116100 0.0 1018532
14:00+28nnw1113100 0.0 10151566
17:00+23nne1118100 0.0 101511
20:00+19ne2222100 0.0 101711